This is the latest recevied weather packets stored in our database for station/object K5NCO. If no packets are shown the sender has not sent any weather packets the latest 10 day(s).
| Time | Temp. | Humidity | Pressure | Rain* | Wind** | Luminosity | Snow |
|---|---|---|---|---|---|---|---|
| 1777818897 | 20° C | 64% | 1024.7 hPa | 0 mm | - | 339 W/m² | - |
| 1777818593 | 19.44° C | 62% | 1024.6 hPa | 0 mm | - | 324 W/m² | - |
| 1777818291 | 19.44° C | 65% | 1024.4 hPa | 0 mm | - | 310 W/m² | - |
| 1777817987 | 18.89° C | 68% | 1024.4 hPa | 0 mm | - | 293 W/m² | - |
| 1777817684 | 18.33° C | 68% | 1024.2 hPa | 0 mm | - | 276 W/m² | - |
| 1777817381 | 18.33° C | 69% | 1024.4 hPa | 0 mm | - | 261 W/m² | - |
| 1777817078 | 17.78° C | 69% | 1024.3 hPa | 0 mm | - | 245 W/m² | - |
| 1777816774 | 17.78° C | 70% | 1024.4 hPa | 0 mm | - | 229 W/m² | - |
| 1777816472 | 17.22° C | 70% | 1024.4 hPa | 0 mm | - | 214 W/m² | - |
| 1777816169 | 17.22° C | 73% | 1024.4 hPa | 0 mm | - | 198 W/m² | - |
| 1777815867 | 16.67° C | 72% | 1024.5 hPa | 0 mm | - | 184 W/m² | - |
| 1777815564 | 16.67° C | 75% | 1024.5 hPa | 0 mm | - | 174 W/m² | - |
| 1777815262 | 16.11° C | 74% | 1024.4 hPa | 0 mm | - | 160 W/m² | - |
| 1777814957 | 16.11° C | 76% | 1024.3 hPa | 0 mm | - | 148 W/m² | - |
| 1777814654 | 15.56° C | 76% | 1024.2 hPa | 0 mm | - | 136 W/m² | - |
| 1777814351 | 15° C | 77% | 1024.2 hPa | 0 mm | - | 125 W/m² | - |
| 1777814048 | 15° C | 77% | 1024.2 hPa | 0 mm | - | 114 W/m² | - |
| 1777813745 | 15° C | 78% | 1024.2 hPa | 0 mm | - | 104 W/m² | - |
| 1777813442 | 15° C | 78% | 1024.4 hPa | 0 mm | - | 94 W/m² | - |
| 1777813134 | 14.44° C | 79% | 1024.3 hPa | 0 mm | - | 85 W/m² | - |
| 1777812832 | 14.44° C | 81% | 1024.1 hPa | 0 mm | - | 75 W/m² | - |
| 1777812528 | 13.89° C | 82% | 1024.2 hPa | 0 mm | - | 67 W/m² | - |
| 1777812226 | 14.44° C | 81% | 1024.4 hPa | 0 mm | - | 59 W/m² | - |
| 1777811924 | 13.89° C | 82% | 1024.3 hPa | 0 mm | - | 51 W/m² | - |
| 1777811623 | 13.33° C | 84% | 1024.2 hPa | 0 mm | - | 43 W/m² | - |
* Rain latest hour (hover to see other rain measurements)
** Current wind speed in m/s (hover to see current wind gust speed)